カタログに戻る

CZ-6A DEB

運用中PO
NORAD 64661·DEBRIS·🇨🇳 China

打ち上げ Aug 6, 2024 から Taiyuan Satellite Launch Center

Loading…

次のパス (今後24時間)

TLE

最新Source: Space-Track

元期: Sep 13, 2026, 23:43 UTC

1 64661U 24140AFB 26256.98859025  .00001059  00000-0  45831-3 0  9990
2 64661  88.9886 263.7086 0038822 231.7382 128.0315 14.23300279 97291

AllMySatでCZ-6A DEBをリアルタイム追跡

Download on the App Store